Weather History for PGSN - July, 2013

Change the Weather History Date:

Sunday, July 28, 2013

  Actual Average Record
Temperature  
Mean Temperature 80 °F -  
Max Temperature 87 °F 84 °F 89 °F (1997)
Min Temperature 72 °F 76 °F 72 °F (2013)
Cooling Degree Days 14    
Growing Degree Days 30 (Base 50)    
Moisture  
Dew Point 75 °F    
Average Humidity 93    
Maximum Humidity 100    
Minimum Humidity 66    
Precipitation  
Precipitation 0.12 in - - ()
Sea Level Pressure  
Sea Level Pressure 29.95 in    
Wind  
Wind Speed 8 mph (East)    
Max Wind Speed 13 mph    
Max Gust Speed 17 mph    
Visibility 9 miles    
Events Rain    
Averages and records for this station are not official NWS values.
T = Trace of Precipitation, MM = Missing Value Source: NWS Daily Summary

Daily Weather History Graph

Daily Weather History Graph

Search for Another Location

Airport or City:

Trip Planner

Search our weather history database for the weather conditions in past years. The results will help you decide how hot, cold, wet, or windy it might be!

Date:

Astronomy

Jul. 28, 2013 Rise Set
Actual Time 5:58 AM ChST 6:48 PM ChST
Civil Twilight 5:35 AM ChST 7:11 PM ChST
Nautical Twilight 5:08 AM ChST 7:38 PM ChST
Astronomical Twilight 4:41 AM ChST 8:05 PM ChST
Moon 10:58 PM ChST (7/28) 10:54 AM ChST (7/28)
Length of Visible Light 13h 35m
Length of Day
12h 49m
Waning Gibbous, 67% of the Moon is Illuminated
Jul 28
Waning Gibbous
Jul 30
Last Quarter
Aug 7
New
Aug 14
First Quarter
Aug 21
Full

Hourly Weather History & Observations

Time (ChST) Temp. Heat Index Dew Point Humidity Pressure Visibility Wind Dir Wind Speed Gust Speed Precip Events Conditions
12:54 AM 73.0 °F - 73.0 °F 100% 29.96 in 10.0 mi East 8.1 mph - N/A   Partly Cloudy
1:54 AM 73.9 °F - 73.9 °F 100% 29.94 in 10.0 mi East 8.1 mph - N/A   Clear
2:54 AM 73.9 °F - 73.9 °F 100% 29.94 in 10.0 mi East 8.1 mph - N/A   Partly Cloudy
3:54 AM 73.9 °F - 73.9 °F 100% 29.94 in 10.0 mi East 6.9 mph - N/A   Partly Cloudy
4:54 AM 73.9 °F - 73.9 °F 100% 29.94 in 10.0 mi East 6.9 mph - 0.00 in   Scattered Clouds
5:54 AM 72.0 °F - 72.0 °F 100% 29.95 in 10.0 mi ESE 5.8 mph - N/A   Scattered Clouds
6:54 AM 73.9 °F - 73.9 °F 100% 29.96 in 10.0 mi East 5.8 mph - N/A   Clear
7:42 AM 75.2 °F - 75.2 °F 100% 29.90 in 10.0 mi East 4.6 mph - N/A   Mostly Cloudy
7:54 AM 75.0 °F - 75.0 °F 100% 29.97 in 10.0 mi East 5.8 mph - N/A   Mostly Cloudy
8:05 AM 75.2 °F - 75.2 °F 100% 29.91 in 1.8 mi SSE 4.6 mph - 0.07 in Rain Heavy Rain
8:09 AM 75.2 °F - 75.2 °F 100% 29.91 in 2.0 mi East 3.5 mph - 0.12 in Rain Light Rain
8:17 AM 77.0 °F - 77.0 °F 100% 29.90 in 10.0 mi East 8.1 mph - 0.12 in Rain Light Rain
8:54 AM 75.9 °F - 75.9 °F 100% 29.97 in 10.0 mi ENE 8.1 mph - 0.12 in   Partly Cloudy
9:54 AM 75.9 °F - 75.9 °F 100% 29.97 in 10.0 mi East 8.1 mph - N/A   Mostly Cloudy
10:21 AM 75.2 °F - 75.2 °F 100% 29.90 in 10.0 mi ENE 9.2 mph - N/A   Scattered Clouds
10:54 AM 75.9 °F - 75.0 °F 97% 29.97 in 10.0 mi East 11.5 mph 16.1 mph N/A   Scattered Clouds
11:54 AM 75.9 °F - 75.0 °F 97% 29.96 in 10.0 mi ENE 11.5 mph - N/A   Partly Cloudy
12:54 PM 75.9 °F - 75.9 °F 100% 29.95 in 10.0 mi East 9.2 mph - N/A   Scattered Clouds
1:54 PM 75.9 °F - 75.0 °F 97% 29.94 in 10.0 mi ENE 12.7 mph 17.3 mph N/A   Partly Cloudy
2:54 PM 75.9 °F - 75.9 °F 100% 29.94 in 10.0 mi East 12.7 mph - N/A   Scattered Clouds
3:54 PM 75.9 °F - 75.9 °F 100% 29.93 in 10.0 mi NE 10.4 mph - N/A   Scattered Clouds
4:54 PM 87.8 °F 97.6 °F 75.0 °F 66% 29.92 in 10.0 mi ENE 10.4 mph - N/A   Scattered Clouds
5:54 PM 87.1 °F 97.3 °F 75.9 °F 69% 29.93 in 10.0 mi ENE 8.1 mph - N/A   Scattered Clouds
6:54 PM 86.0 °F 96.0 °F 75.9 °F 72% 29.94 in 10.0 mi East 8.1 mph - N/A   Scattered Clouds
7:54 PM 84.9 °F 96.6 °F 78.1 °F 80% 29.96 in 10.0 mi East 8.1 mph - N/A   Partly Cloudy
8:54 PM 84.9 °F 96.6 °F 78.1 °F 80% 29.97 in 10.0 mi ENE 5.8 mph - N/A   Partly Cloudy
9:54 PM 84.0 °F 92.6 °F 75.9 °F 76% 29.98 in 10.0 mi ENE 6.9 mph - N/A   Partly Cloudy
10:54 PM 82.9 °F 90.8 °F 75.9 °F 79% 29.99 in 9.0 mi NE 10.4 mph - 0.00 in Rain Light Rain
11:54 PM 82.0 °F 91.0 °F 78.1 °F 88% 29.97 in 10.0 mi ENE 8.1 mph - 0.00 in   Scattered Clouds